Location: Palomar Mountain Lodge
(33.3110°N, 116.8495°W)
Time: 14:20:12
(UTC-08:00)

deb Kosmos-1763 - Visible Passes

Search period start: 18 January 2019 00:00
Search period end: 28 January 2019 00:00
Orbit: 478 x 496 km, 74.0° (Epoch: 18 January)

Date Brightness Start Highest point End Pass type
(mag) Time Alt. Az. Time Alt. Az. Time Alt. Az.
18 Jan 6.2 04:34:39 23° NE 04:35:09 23° ENE 04:38:09 10° ESE visible
18 Jan 5.8 06:09:08 12° WNW 06:10:58 16° W 06:13:13 10° SW visible
18 Jan 4.4 18:12:37 10° S 18:16:10 44° ESE 18:17:58 25° NE visible
19 Jan 7.1 04:11:50 15° E 04:11:50 15° E 04:13:14 10° ESE visible
19 Jan 5.3 05:46:19 22° W 05:46:46 22° W 05:49:40 10° SSW visible
19 Jan 5.0 17:48:39 10° SSE 17:51:57 30° ESE 17:55:11 10° NE visible
19 Jan 7.1 19:26:13 10° W 19:28:03 13° WNW 19:29:39 11° NW visible
20 Jan 5.2 05:23:33 27° SW 05:23:33 27° SW 05:25:50 10° SSW visible
20 Jan 6.8 19:01:01 10° WSW 19:03:40 18° WNW 19:06:19 10° NNW visible
21 Jan 6.2 05:00:51 17° S 05:00:51 17° S 05:01:50 10° S visible
21 Jan 6.3 18:36:10 10° SW 18:39:17 25° WNW 18:42:28 10° N visible
22 Jan 5.7 18:11:29 10° SW 18:14:56 36° WNW 18:18:26 10° N visible
23 Jan 4.9 17:46:58 10° SSW 17:50:36 53° WNW 17:54:16 10° N visible
27 Jan 7.1 17:47:38 10° W 17:49:29 13° WNW 17:51:19 10° NW visible
